Cloud_Cover
7 5 5 5 5 5 5 6 5 94 100 100 52 19 88 100 50 100 100 100 100 88 100 100 81 6 88 100 100 100 100 100 100 100 100 100 100 100 98 98 91 100 99 100 100 100 100 91 100 100 100 100 100 100
5 5 5 5 5 5 36 59 100 38 77 100 100 100 20 67 87 100 100 100 100 92 100 100 100 100 100 100 100 100 100 100 100 100 100 100 100 100 100 75 80 100 100 98 100 100 100 100 100 100 100 100 100 100
5 5 5 5 5 5 17 98 98 96 95 73 82 24 20 5 50 100 100 100 100 100 100 100 100 100 100 100 100 100 100 100 100 100 100 99 87 66 12 44 100 68 100 100 100 100 100 100 100 100 100 100 100 100
5 5 5 5 5 6 6 11 24 32 5 5 3 5 28 86 100 100 100 100 100 100 100 100 100 100 100 100 100 100 100 99 80 68 99 92 41 8 5 7 100 100 100 100 100 100 100 100 100 100 100 100 100 100
5 5 5 5 5 5 6 96 36 6 48 46 59 92 82 100 100 100 100 100 100 100 100 100 100 100 100 100 100 100 38 61 99 98 97 67 5 5 4 5 100 100 100 100 100 62 100 100 100 100 100 100 100 100
5 5 5 5 5 5 12 9 69 78 84 100 86 100 100 100 100 100 100 100 100 100 100 100 61 28 51 92 61 50 30 53 73 99 99 100 91 9 5 1 15 95 100 5 35 97 30 100 100 100 100 100 100 100
5 5 5 5 5 5 42 22 83 100 77 94 100 100 100 100 100 100 100 100 100 99 95 63 35 30 55 38 12 19 24 79 66 100 90 100 99 100 58 4 28 1 0 0 0 11 26 98 100 100 100 100 100 100
5 5 5 5 5 6 10 28 27 95 98 100 100 100 100 100 100 100 100 100 100 79 33 66 76 63 23 37 70 5 83 78 60 30 60 17 35 100 85 70 52 26 5 5 0 1 4 1 67 100 100 100 100 100
33 21 44 40 6 44 7 58 43 89 100 100 99 100 100 100 100 100 100 100 100 100 87 82 99 100 5 5 5 16 11 39 43 21 80 100 100 100 100 100 100 100 100 100 100 94 4 18 5 18 100 100 100 100
5 5 5 5 5 12 31 5 5 22 6 32 71 96 99 100 100 100 100 100 97 99 82 81 22 71 5 30 100 100 100 100 100 100 100 100 100 100 100 100 100 100 100 100 100 56 91 5 47 81 100 100 100 100
8 54 63 32 5 5 5 5 5 5 2 6 35 50 60 48 89 100 100 100 83 62 28 33 6 34 100 100 100 100 100 100 100 100 100 100 100 100 100 100 100 100 100 98 79 93 100 33 5 9 100 83 100 100
5 19 69 100 100 87 16 5 5 5 5 5 7 13 87 62 53 66 100 100 98 22 5 17 42 100 100 100 100 100 100 96 100 100 100 100 100 100 100 100 100 100 100 98 74 80 12 5 5 9 63 100 100 100
75 94 76 66 94 100 100 92 7 5 6 5 12 10 51 41 50 10 22 63 82 24 9 97 100 100 100 100 100 100 100 100 100 100 100 100 100 100 100 100 100 83 88 97 72 17 4 47 99 91 100 100 100 98
5 47 100 100 100 100 100 100 100 91 34 23 10 43 8 39 42 95 100 100 100 100 100 100 100 100 100 100 99 100 100 100 100 100 100 100 100 100 100 100 100 100 100 100 100 100 100 100 97 100 99 94 95 100
0 2 4 5 62 100 98 100 100 100 100 66 25 64 66 5 18 26 21 25 67 70 98 100 99 100 100 100 100 100 99 100 100 100 100 100 100 100 100 100 100 100 100 100 100 100 100 100 95 100 98 98 98 100
5 0 2 3 0 0 19 76 44 98 100 100 68 48 98 61 18 9 5 9 45 66 98 97 98 100 100 99 99 100 100 98 100 99 100 98 100 100 100 100 100 100 100 100 100 100 100 100 100 100 100 100 100 100
5 5 4 4 0 4 3 4 5 24 77 100 89 96 100 100 96 75 66 20 38 87 100 100 100 100 96 100 99 82 100 97 92 99 100 99 100 100 100 100 100 100 100 100 100 100 100 100 100 100 100 100 100 100
43 8 5 9 15 7 18 5 7 7 28 9 77 100 100 100 100 100 50 86 44 95 91 98 87 96 78 100 100 95 100 94 95 88 93 88 86 100 100 100 100 100 100 100 100 100 100 100 84 97 92 88 85 89
81 19 5 5 20 48 15 35 50 84 60 56 34 25 81 100 100 100 100 97 69 90 91 92 99 89 98 100 100 100 78 91 77 90 97 92 99 100 100 100 79 94 98 100 100 100 100 100 93 100 100 100 100 99
5 5 5 78 82 69 62 83 42 87 92 76 94 87 87 99 100 100 100 100 100 100 94 99 69 95 98 96 89 90 98 100 96 100 89 90 82 83 93 91 92 100 100 95 96 93 100 100 100 100 100 98 98 100
9 24 17 53 97 99 99 99 53 84 100 100 82 58 98 84 100 100 100 100 100 100 100 100 100 100 100 100 100 100 90 97 100 98 88 98 100 100 100 100 100 100 100 100 100 100 100 100 100 98 99 94 74 100
34 7 43 27 66 80 89 94 94 66 76 68 74 90 55 65 96 100 95 100 100 100 100 100 100 100 100 100 100 99 79 76 75 73 82 95 97 88 93 100 100 100 100 100 100 100 99 100 100 100 100 100 100 100
57 73 91 26 77 80 77 34 86 72 88 82 43 45 55 94 50 38 96 100 100 100 100 100 100 100 100 100 100 100 100 100 95 100 100 100 100 100 100 100 100 99 100 100 100 100 100 100 100 100 100 100 100 100
60 65 10 24 5 5 5 5 6 59 94 12 8 4 2 5 14 10 94 100 100 100 100 100 100 100 100 100 100 100 100 100 100 100 100 100 100 100 100 100 100 100 100 100 100 100 100 100 100 100 100 100 98 100
83 74 27 21 5 5 3 0 4 5 4 0 0 0 14 6 3 81 100 100 100 100 100 100 100 100 100 100 100 100 100 100 100 100 100 100 100 100 100 100 100 100 98 100 100 100 100 100 100 100 100 100 100 100
73 58 33 5 5 5 5 0 0 3 0 0 6 55 6 30 38 100 100 100 100 100 100 100 100 100 100 100 100 100 100 100 100 100 100 100 100 100 100 100 99 99 100 100 100 100 100 100 100 100 100 100 100 100
91 64 69 37 24 5 5 3 0 0 11 86 99 13 93 100 100 100 100 100 100 100 100 100 100 100 100 100 100 100 100 100 98 100 100 100 98 98 100 100 100 100 100 100 100 100 100 100 100 100 100 100 100 100
100 76 58 57 44 27 5 5 5 23 97 95 47 27 49 96 100 97 98 100 100 100 100 100 100 100 100 100 100 100 100 100 100 98 100 100 95 99 95 100 100 97 100 100 100 100 100 100 100 100 100 99 99 100
100 99 59 73 70 52 21 5 4 43 84 24 31 25 3 44 65 41 68 96 100 100 100 100 100 100 100 100 100 100 100 100 100 100 100 100 98 87 99 100 100 100 100 100 100 100 100 100 100 100 100 100 98 100
100 100 90 62 63 88 38 5 5 51 14 2 8 5 5 37 93 100 100 100 100 100 100 100 100 100 100 100 100 100 100 100 100 100 100 100 100 100 100 100 100 100 100 100 100 100 100 100 100 100 100 100 100 99
100 100 100 87 91 65 23 14 6 5 6 5 11 16 11 95 100 100 100 100 100 100 100 100 100 100 100 100 100 100 100 100 100 100 100 100 100 100 100 100 100 100 100 100 100 100 100 100 100 100 100 100 100 98
100 100 100 100 100 95 44 6 16 5 50 81 37 97 100 100 98 98 98 100 100 100 100 89 100 100 100 100 100 100 100 100 100 100 100 100 100 100 99 100 100 100 100 100 100 100 100 100 100 100 100 100 100 100
100 100 100 100 100 100 52 5 5 37 79 100 100 100 100 100 98 90 100 97 100 100 100 100 100 100 100 100 100 100 100 100 100 100 99 96 97 98 83 92 88 98 100 100 100 100 100 100 100 100 100 100 100 100